Glasgow, United Kingdom

2:54 AM BST on May 25, 2017 (GMT +0100)
Glasgow

Weather History for EGPF - October, 2012

Change the Weather History Date:

Saturday, October 13, 2012

  Actual Average Record
Temperature  
Mean Temperature 48 °F -  
Max Temperature 51 °F 50 °F 68 °F (1996)
Min Temperature 44 °F 40 °F 33 °F (2014)
Degree Days  
Heating Degree Days 18    
Moisture  
Dew Point 42 °F    
Average Humidity 81    
Maximum Humidity 93    
Minimum Humidity 67    
Precipitation  
Precipitation 0.00 in - - ()
Sea Level Pressure  
Sea Level Pressure 29.56 in    
Wind  
Wind Speed 9 mph ()    
Max Wind Speed 13 mph    
Max Gust Speed -    
Visibility 6.2 miles    
Events Rain    
Averages and records for this station are not official NWS values.
T = Trace of Precipitation, MM = Missing Value Source: Averaged Metar Reports

Daily Weather History Graph

Daily Weather History Graph

Search for Another Location

Airport or City:

Trip Planner

Search our weather history database for the weather conditions in past years. The results will help you decide how hot, cold, wet, or windy it might be!

Date:

Astronomy

Oct. 13, 2012 Rise Set
Actual Time 7:45 AM BST 6:21 PM BST
Civil Twilight 7:07 AM BST 6:58 PM BST
Nautical Twilight 6:25 AM BST 7:41 PM BST
Astronomical Twilight 5:41 AM BST 8:24 PM BST
Moon 5:00 AM BST (10/13) 5:09 PM BST (10/13)
Length of Visible Light 11h 50m
Length of Day
10h 36m
Waning Crescent, 6% of the Moon is Illuminated
Oct 13
Waning Crescent
Oct 15
New
Oct 22
First Quarter
Oct 29
Full
Nov 7
Last Quarter

Hourly Weather History & Observations

Time (BST) Temp. Windchill Dew Point Humidity Pressure Visibility Wind Dir Wind Speed Gust Speed Precip Events Conditions
12:50 AM 46.4 °F 40.7 °F 41.0 °F 81% 29.56 in 6.2 mi WSW 12.7 mph - N/A   Scattered Clouds
1:20 AM 46.4 °F 41.1 °F 41.0 °F 81% 29.53 in 6.2 mi WSW 11.5 mph - N/A   Partly Cloudy
1:50 AM 46.4 °F 41.9 °F 41.0 °F 81% 29.53 in 6.2 mi SW 9.2 mph - N/A Rain Light Rain
2:20 AM 46.4 °F 41.1 °F 42.8 °F 87% 29.53 in 6.2 mi WSW 11.5 mph - N/A   Mostly Cloudy
2:50 AM 46.4 °F 41.1 °F 42.8 °F 87% 29.53 in 6.2 mi WSW 11.5 mph - N/A Rain Light Rain
3:20 AM 46.4 °F 41.5 °F 42.8 °F 87% 29.53 in 6.2 mi WSW 10.4 mph - N/A Rain Light Rain
3:50 AM 46.4 °F 41.5 °F 42.8 °F 87% 29.53 in 6.2 mi WSW 10.4 mph - N/A Rain Light Rain
4:20 AM 46.4 °F 41.5 °F 42.8 °F 87% 29.53 in 6.2 mi WSW 10.4 mph - N/A Rain Light Rain
4:50 AM 46.4 °F 41.9 °F 42.8 °F 87% 29.53 in 6.2 mi WSW 9.2 mph - N/A Rain Light Rain
5:20 AM 46.4 °F 41.9 °F 42.8 °F 87% 29.53 in 6.2 mi WSW 9.2 mph - N/A Rain Light Rain
5:50 AM 46.4 °F 42.4 °F 42.8 °F 87% 29.53 in 6.2 mi WSW 8.1 mph - N/A Rain Light Rain
6:20 AM 46.4 °F 42.4 °F 42.8 °F 87% 29.53 in 6.2 mi WSW 8.1 mph - N/A Rain Light Rain
6:50 AM 46.4 °F 41.9 °F 42.8 °F 87% 29.53 in 6.2 mi WSW 9.2 mph - N/A Rain Light Rain
7:20 AM 44.6 °F 39.7 °F 42.8 °F 93% 29.53 in 6.2 mi WSW 9.2 mph - N/A Rain Light Rain
7:50 AM 46.4 °F 41.1 °F 42.8 °F 87% 29.56 in 6.2 mi WSW 11.5 mph - N/A Rain Light Rain
8:20 AM 46.4 °F 42.4 °F 42.8 °F 87% 29.56 in 6.2 mi WSW 8.1 mph - N/A Rain Light Rain
8:50 AM 46.4 °F 41.1 °F 44.6 °F 93% 29.56 in 6.2 mi WSW 11.5 mph - N/A Rain Light Rain
9:20 AM 46.4 °F 41.5 °F 42.8 °F 87% 29.56 in 6.2 mi WSW 10.4 mph - N/A   Mostly Cloudy
10:20 AM 48.2 °F - 44.6 °F 87% 29.56 in 6.2 mi WSW 11.5 mph - N/A Rain Light Rain
10:50 AM 48.2 °F - 44.6 °F 87% 29.56 in 6.2 mi WSW 9.2 mph - N/A Rain Light Rain
11:20 AM 48.2 °F - 42.8 °F 82% 29.59 in 6.2 mi WSW 9.2 mph - N/A Rain Light Rain
11:50 AM 48.2 °F - 42.8 °F 82% 29.59 in 6.2 mi WSW 10.4 mph - N/A   Mostly Cloudy
12:20 PM 50.0 °F - 42.8 °F 76% 29.59 in 6.2 mi West 8.1 mph - N/A   Mostly Cloudy
12:50 PM 50.0 °F - 42.8 °F 76% 29.59 in 6.2 mi West 10.4 mph - N/A   Mostly Cloudy
1:20 PM 50.0 °F - 42.8 °F 76% 29.59 in 6.2 mi WSW 8.1 mph - N/A   Mostly Cloudy
1:50 PM 50.0 °F - 41.0 °F 71% 29.59 in 6.2 mi West 9.2 mph - N/A   Mostly Cloudy
2:20 PM 51.8 °F - 41.0 °F 67% 29.59 in 6.2 mi West 9.2 mph - N/A   Mostly Cloudy
2:50 PM 51.8 °F - 42.8 °F 71% 29.59 in 6.2 mi West 9.2 mph - N/A   Mostly Cloudy
3:20 PM 51.8 °F - 42.8 °F 71% 29.59 in 6.2 mi West 9.2 mph - N/A   Scattered Clouds
3:50 PM 51.8 °F - 42.8 °F 71% 29.56 in 6.2 mi West 9.2 mph - N/A   Scattered Clouds
4:20 PM 51.8 °F - 41.0 °F 67% 29.56 in 6.2 mi West 9.2 mph - N/A   Scattered Clouds
4:50 PM 50.0 °F - 41.0 °F 71% 29.56 in 6.2 mi West 9.2 mph - N/A   Scattered Clouds
5:20 PM 50.0 °F - 41.0 °F 71% 29.56 in 6.2 mi West 8.1 mph - N/A   Mostly Cloudy
5:50 PM 50.0 °F - 41.0 °F 71% 29.56 in 6.2 mi West 9.2 mph - N/A   Mostly Cloudy
6:20 PM 48.2 °F - 41.0 °F 76% 29.56 in 6.2 mi West 11.5 mph - N/A   Mostly Cloudy
6:50 PM 48.2 °F - 41.0 °F 76% 29.59 in 6.2 mi WSW 9.2 mph - N/A   Mostly Cloudy
7:20 PM 48.2 °F - 41.0 °F 76% 29.59 in 6.2 mi WSW 8.1 mph - N/A   Mostly Cloudy
7:50 PM 46.4 °F 42.9 °F 41.0 °F 81% 29.59 in 6.2 mi WSW 6.9 mph - N/A   Mostly Cloudy
8:20 PM 46.4 °F 44.3 °F 41.0 °F 81% 29.59 in 6.2 mi WNW 4.6 mph - N/A   Mostly Cloudy
8:50 PM 46.4 °F 44.3 °F 41.0 °F 81% 29.59 in 6.2 mi SW 4.6 mph - N/A   Mostly Cloudy
9:20 PM 46.4 °F 43.5 °F 41.0 °F 81% 29.59 in 6.2 mi SSW 5.8 mph - N/A   Mostly Cloudy
9:50 PM 46.4 °F 45.2 °F 41.0 °F 81% 29.59 in 6.2 mi South 3.5 mph - N/A   Mostly Cloudy
10:20 PM 46.4 °F - 41.0 °F 81% 29.59 in 6.2 mi Variable 2.3 mph - N/A   Overcast
10:50 PM 46.4 °F - 42.8 °F 87% 29.59 in 6.2 mi Calm Calm - N/A   Overcast
11:20 PM 46.4 °F - 42.8 °F 87% 29.59 in 6.2 mi Calm Calm - N/A   Overcast
11:50 PM 46.4 °F 45.2 °F 42.8 °F 87% 29.56 in 6.2 mi East 3.5 mph - N/A   Overcast